OK,128,70,811,128,2014-10-01T01:40:00,0,28072581,190799
OK,128,70,811,128,2014-10-01T01:45:00,0,28073028,190799
OK,128,70,811,128,2014-10-01T01:50:00,0,28073477,190799
OK,128,70,811,128,2014-10-01T01:55:00,0,28073795,190799
OK,128,70,811,128,2014-10-01T02:00:00,0,28074243,190799
OK,128,70,811,128,2014-10-01T02:05:00,0,28074686,190799
OK,128,70,811,128,2014-10-01T02:10:00,0,28075132,190799
OK,128,70,811,128,2014-10-01T02:20:00,0,28075581,190799
OK,128,70,811,128,2014-10-01T02:25:00,0,28076413,190799
OK,128,70,811,128,2014-10-01T02:30:00,0,28076862,190799
OK,128,70,811,128,2014-10-01T02:35:00,0,28077311,190799
OK,128,70,811,128,2014-10-01T02:40:00,0,28077724,190799
OK,128,70,811,128,2014-10-01T02:45:00,0,28078163,190799
OK,128,70,811,128,2014-10-01T02:50:00,0,28078608,190799
OK,128,70,811,128,2014-10-01T02:55:00,0,28079057,190799
OK,128,70,811,128,2014-10-01T03:00:00,0,28079501,190799
OK,128,70,811,128,2014-10-01T03:05:00,0,28079948,190799
OK,128,70,811,128,2014-10-01T03:10:00,0,28080293,190799
OK,128,70,811,128,2014-10-01T03:15:00,0,28080731,190799
OK,128,70,811,128,2014-10-01T03:20:00,0,28081180,190799
OK,128,70,811,128,2014-10-01T03:25:00,0,28081627,190799
OK,128,70,811,128,2014-10-01T03:35:00,0,28082076,190799
OK,128,70,811,128,2014-10-01T03:40:00,0,28082945,190799
OK,128,70,811,128,2014-10-01T03:45:00,0,28083390,190799
OK,128,70,811,128,2014-10-01T03:55:00,0,28083839,190799
OK,128,70,811,128,2014-10-01T04:00:00,0,28084288,190799
OK,128,70,811,128,2014-10-01T04:10:00,0,28085154,190799
OK,128,70,811,128,2014-10-01T04:20:00,0,28086048,190799
OK,128,70,811,128,2014-10-01T04:25:00,0,28086939,190799
OK,128,70,811,128,2014-10-01T04:30:00,0,28087384,190799
OK,128,70,811,128,2014-10-01T04:35:00,0,28087833,190799
OK,128,70,811,128,2014-10-01T04:40:00,0,28088270,190799
OK,136,66,811,136,2014-10-01T04:45:00,1,28088706,190799
OK,140,64,811,140,2014-10-01T04:50:00,3,28089140,190799
OK,144,62,811,144,2014-10-01T04:55:00,3,28089585,190799
OK,134,67,811,134,2014-10-01T05:05:00,3,28090034,190799
OK,134,67,811,134,2014-10-01T05:10:00,3,28090827,190799
OK,149,60,811,149,2014-10-01T05:20:00,2,28091276,190799
OK,144,62,811,144,2014-10-01T05:25:00,2,28092142,190799
OK,138,65,811,138,2014-10-01T05:30:00,5,28092587,190799
OK,140,64,811,140,2014-10-01T05:35:00,9,28093030,190799
OK,148,60,811,148,2014-10-01T05:40:00,7,28093460,190799
OK,145,62,811,145,2014-10-01T05:50:00,10,28093907,190799
OK,141,63,811,141,2014-10-01T05:55:00,7,28094763,190799
OK,139,64,811,139,2014-10-01T06:00:00,5,28095211,190799
OK,146,61,811,146,2014-10-01T06:05:00,5,28095659,190799
OK,153,58,811,153,2014-10-01T06:10:00,4,28096081,190799
OK,153,58,811,153,2014-10-01T06:15:00,2,28096521,190799
OK,146,61,811,146,2014-10-01T06:20:00,3,28096961,190799
OK,141,63,811,141,2014-10-01T06:25:00,3,28097404,190799
OK,150,60,811,150,2014-10-01T06:35:00,1,28097853,190799
OK,120,75,811,120,2014-10-01T06:40:00,3,28098738,190799
OK,119,75,811,119,2014-10-01T06:45:00,3,28099182,190799
OK,136,66,811,136,2014-10-01T06:50:00,6,28099536,190799
OK,136,66,811,136,2014-10-01T06:55:00,5,28099974,190799
OK,137,65,811,137,2014-10-01T07:00:00,4,28100289,190799
OK,143,62,811,143,2014-10-01T07:05:00,1,28100730,190799
OK,152,59,811,152,2014-10-01T07:10:00,1,28101105,190799
OK,146,61,811,146,2014-10-01T07:15:00,2,28101550,190799
OK,142,63,811,142,2014-10-01T07:20:00,1,28101992,190799
OK,161,55,811,161,2014-10-01T07:30:00,1,28102435,190799
OK,127,70,811,127,2014-10-01T07:40:00,1,28103310,190799
OK,133,67,811,133,2014-10-01T07:45:00,3,28104202,190799
OK,134,67,811,134,2014-10-01T07:50:00,5,28104644,190799
OK,156,57,811,156,2014-10-01T07:55:00,3,28105085,190799
OK,150,60,811,150,2014-10-01T08:00:00,1,28105529,190799
OK,151,59,811,151,2014-10-01T08:05:00,4,28105974,190799
OK,152,59,811,152,2014-10-01T08:10:00,3,28106414,190799
OK,137,65,811,137,2014-10-01T08:15:00,0,28106821,190799
OK,139,64,811,139,2014-10-01T08:20:00,1,28107249,190799
OK,139,64,811,139,2014-10-01T08:25:00,0,28107698,190799
OK,115,78,811,115,2014-10-01T08:30:00,4,28108138,190799
OK,126,71,811,126,2014-10-01T08:35:00,1,28108586,190799
OK,140,64,811,140,2014-10-01T08:40:00,1,28109018,190799
OK,140,64,811,140,2014-10-01T08:45:00,1,28109463,190799
OK,140,64,811,140,2014-10-01T08:50:00,0,28109811,190799
OK,143,62,811,143,2014-10-01T08:55:00,1,28110255,190799
OK,143,62,811,143,2014-10-01T09:00:00,1,28110681,190799
OK,143,62,811,143,2014-10-01T09:05:00,0,28111127,190799
OK,143,62,811,143,2014-10-01T09:10:00,0,28111559,190799
OK,131,68,811,131,2014-10-01T09:15:00,2,28112005,190799
OK,131,68,811,131,2014-10-01T09:20:00,2,28112350,190799
OK,127,70,811,127,2014-10-01T09:25:00,0,28112795,190799
OK,127,70,811,127,2014-10-01T09:30:00,0,28113223,190799
OK,132,68,811,132,2014-10-01T09:35:00,2,28113668,190799
OK,135,66,811,135,2014-10-01T09:40:00,2,28114101,190799
OK,135,66,811,135,2014-10-01T09:45:00,1,28114549,190799
OK,135,66,811,135,2014-10-01T09:50:00,0,28114905,190799
OK,119,75,811,119,2014-10-01T10:00:00,4,28115352,190799
OK,132,68,811,132,2014-10-01T10:10:00,0,28116213,190799
OK,132,68,811,132,2014-10-01T10:15:00,0,28117070,190799
OK,166,54,811,166,2014-10-01T10:20:00,1,28117498,190799
OK,149,60,811,149,2014-10-01T10:25:00,2,28117944,190799
OK,133,67,811,133,2014-10-01T10:30:00,3,28118389,190799
OK,146,61,811,146,2014-10-01T10:35:00,1,28118837,190799
OK,146,61,811,146,2014-10-01T10:40:00,0,28119280,190799
OK,135,66,811,135,2014-10-01T10:45:00,1,28119728,190799
OK,133,67,811,133,2014-10-01T10:50:00,2,28120176,190799
OK,133,67,811,133,2014-10-01T10:55:00,0,28120625,190799
OK,133,67,811,133,2014-10-01T11:00:00,0,28121012,190799
OK,120,75,811,120,2014-10-01T11:05:00,2,28121457,190799
OK,118,76,811,118,2014-10-01T11:10:00,8,28121896,190799
OK,114,79,811,114,2014-10-01T11:15:00,6,28122344,190799
OK,128,70,811,128,2014-10-01T11:20:00,2,28122786,190799
OK,140,64,811,140,2014-10-01T11:25:00,2,28123234,190799
OK,126,71,811,126,2014-10-01T11:30:00,2,28123668,190799
OK,142,63,811,142,2014-10-01T11:40:00,1,28124115,190799
OK,145,62,811,145,2014-10-01T11:45:00,2,28124966,190799
OK,136,66,811,136,2014-10-01T11:50:00,2,28125397,190799
OK,124,72,811,124,2014-10-01T11:55:00,1,28125844,190799
OK,120,75,811,120,2014-10-01T12:00:00,1,28126198,190799
OK,123,73,811,123,2014-10-01T12:05:00,3,28126645,190799
OK,125,72,811,125,2014-10-01T12:10:00,2,28127094,190799
OK,123,73,811,123,2014-10-01T12:15:00,0,28127543,190799
OK,134,67,811,134,2014-10-01T12:20:00,2,28127973,190799
OK,136,66,811,136,2014-10-01T12:25:00,2,28128420,190799
OK,139,64,811,139,2014-10-01T12:30:00,2,28128857,190799
OK,140,64,811,140,2014-10-01T12:35:00,2,28129304,190799
OK,151,59,811,151,2014-10-01T12:40:00,1,28129739,190799
OK,145,62,811,145,2014-10-01T12:45:00,1,28130187,190799
OK,145,62,811,145,2014-10-01T12:50:00,0,28130617,190799
OK,136,66,811,136,2014-10-01T12:55:00,1,28131064,190799
OK,140,64,811,140,2014-10-01T13:00:00,3,28131503,190799
OK,136,66,811,136,2014-10-01T13:05:00,2,28131950,190799
OK,138,65,811,138,2014-10-01T13:10:00,2,28132389,190799
OK,130,69,811,130,2014-10-01T13:15:00,5,28132835,190799
OK,131,68,811,131,2014-10-01T13:20:00,4,28133273,190799
OK,140,64,811,140,2014-10-01T13:25:00,3,28133722,190799
OK,140,64,811,140,2014-10-01T13:30:00,5,28134161,190799
OK,143,62,811,143,2014-10-01T13:35:00,1,28134610,190799
OK,143,62,811,143,2014-10-01T13:40:00,0,28135030,190799
OK,133,67,811,133,2014-10-01T13:45:00,1,28135478,190799
OK,133,67,811,133,2014-10-01T13:50:00,3,28135915,190799
OK,133,67,811,133,2014-10-01T13:55:00,2,28136364,190799
OK,127,70,811,127,2014-10-01T14:00:00,1,28136804,190799
OK,138,65,811,138,2014-10-01T14:05:00,3,28137253,190799
OK,143,62,811,143,2014-10-01T14:10:00,4,28137688,190799
OK,162,55,811,162,2014-10-01T14:15:00,1,28138136,190799
OK,132,68,811,132,2014-10-01T14:20:00,1,28138565,190799
OK,129,69,811,129,2014-10-01T14:25:00,2,28139013,190799
OK,126,71,811,126,2014-10-01T14:30:00,0,28139425,190799
OK,134,67,811,134,2014-10-01T14:35:00,3,28139873,190799
OK,134,67,811,134,2014-10-01T14:40:00,3,28140316,190799
OK,134,67,811,134,2014-10-01T14:45:00,0,28140764,190799
OK,130,69,811,130,2014-10-01T14:50:00,2,28141192,190799
OK,131,68,811,131,2014-10-01T14:55:00,4,28141639,190799
OK,136,66,811,136,2014-10-01T15:00:00,5,28142069,190799
OK,141,63,811,141,2014-10-01T15:05:00,4,28142516,190799
OK,147,61,811,147,2014-10-01T15:10:00,1,28142946,190799
OK,128,70,811,128,2014-10-01T15:15:00,1,28143392,190799
OK,128,70,811,128,2014-10-01T15:20:00,3,28143840,190799
OK,134,67,811,134,2014-10-01T15:25:00,2,28144289,190799
OK,123,73,811,123,2014-10-01T15:30:00,1,28144716,190799
OK,113,79,811,113,2014-10-01T15:35:00,1,28145124,190799
OK,127,70,811,127,2014-10-01T15:40:00,3,28145573,190799
OK,127,70,811,127,2014-10-01T15:45:00,4,28146022,190799
OK,134,67,811,134,2014-10-01T15:55:00,2,28146471,190799
OK,137,65,811,137,2014-10-01T16:00:00,1,28147324,190799
OK,137,65,811,137,2014-10-01T16:05:00,0,28147772,190799
OK,137,65,811,137,2014-10-01T16:10:00,0,28148175,190799
OK,134,67,811,134,2014-10-01T16:15:00,3,28148622,190799
OK,134,67,811,134,2014-10-01T16:20:00,1,28149063,190799
OK,120,75,811,120,2014-10-01T16:25:00,0,28149510,190799
OK,127,70,811,127,2014-10-01T16:30:00,3,28149939,190799
OK,128,70,811,128,2014-10-01T16:35:00,2,28150385,190799
OK,184,48,811,184,2014-10-01T16:40:00,3,28150806,190799
OK,142,63,811,142,2014-10-01T16:45:00,1,28151252,190799
OK,142,63,811,142,2014-10-01T16:55:00,0,28151701,190799
OK,98,91,811,98,2014-10-01T17:00:00,1,28152150,190799
OK,112,80,811,112,2014-10-01T17:05:00,2,28152596,190799
OK,127,70,811,127,2014-10-01T17:10:00,0,28153043,190799
OK,127,70,811,127,2014-10-01T17:15:00,0,28153492,190799
OK,135,66,811,135,2014-10-01T17:20:00,3,28153912,190799
OK,137,65,811,137,2014-10-01T17:25:00,2,28154351,190799
OK,135,66,811,135,2014-10-01T17:30:00,0,28154794,190799
OK,135,66,811,135,2014-10-01T17:35:00,0,28155241,190799
OK,111,81,811,111,2014-10-01T17:40:00,1,28155665,190799
OK,111,81,811,111,2014-10-01T17:45:00,0,28156108,190799
OK,111,81,811,111,2014-10-01T17:50:00,0,28156557,190799
OK,111,81,811,111,2014-10-01T17:55:00,0,28156996,190799
OK,111,81,811,111,2014-10-01T18:00:00,0,28157428,190799
OK,111,81,811,111,2014-10-01T18:05:00,0,28157873,190799
OK,111,81,811,111,2014-10-01T18:10:00,0,28158317,190799
OK,111,81,811,111,2014-10-01T18:15:00,0,28158764,190799
OK,111,81,811,111,2014-10-01T18:20:00,0,28159209,190799
OK,111,81,811,111,2014-10-01T18:25:00,0,28159545,190799
OK,111,81,811,111,2014-10-01T18:30:00,0,28159993,190799
OK,111,81,811,111,2014-10-01T18:35:00,0,28160442,190799
OK,111,81,811,111,2014-10-01T18:40:00,0,28160882,190799
OK,111,81,811,111,2014-10-01T18:45:00,0,28161329,190799
OK,111,81,811,111,2014-10-01T18:50:00,0,28161747,190799
OK,111,81,811,111,2014-10-01T19:00:00,0,28162195,190799
OK,111,81,811,111,2014-10-01T19:05:00,0,28163029,190799
OK,111,81,811,111,2014-10-01T19:10:00,0,28163476,190799
OK,111,81,811,111,2014-10-01T19:15:00,0,28163925,190799
OK,111,81,811,111,2014-10-01T19:20:00,0,28164358,190799
OK,123,73,811,123,2014-10-01T19:25:00,0,28164805,190799
OK,123,73,811,123,2014-10-01T19:30:00,0,28165234,190799
OK,123,73,811,123,2014-10-01T19:35:00,0,28165678,190799
OK,123,73,811,123,2014-10-01T19:40:00,1,28166119,190799
OK,123,73,811,123,2014-10-01T19:45:00,0,28166481,190799
OK,123,73,811,123,2014-10-01T19:50:00,0,28166930,190799
OK,123,73,811,123,2014-10-01T19:55:00,0,28167359,190799
OK,123,73,811,123,2014-10-01T20:00:00,0,28167793,190799
OK,123,73,811,123,2014-10-01T20:05:00,0,28168241,190799
OK,123,73,811,123,2014-10-01T20:10:00,0,28168686,190799
OK,123,73,811,123,2014-10-01T20:15:00,0,28169135,190799
OK,123,73,811,123,2014-10-01T20:20:00,0,28169583,190799
OK,166,54,811,166,2014-10-01T20:25:00,1,28170009,190799
OK,166,54,811,166,2014-10-01T20:30:00,0,28170454,190799
OK,166,54,811,166,2014-10-01T20:35:00,0,28170902,190799
OK,166,54,811,166,2014-10-01T20:40:00,0,28171339,190799
OK,166,54,811,166,2014-10-01T20:45:00,0,28171785,190799
OK,166,54,811,166,2014-10-01T20:50:00,0,28172233,190799
OK,166,54,811,166,2014-10-01T20:55:00,0,28172679,190799
OK,166,54,811,166,2014-10-01T21:00:00,0,28173125,190799
OK,166,54,811,166,2014-10-01T21:05:00,0,28173574,190799
OK,166,54,811,166,2014-10-01T21:10:00,0,28174015,190799
OK,166,54,811,166,2014-10-01T21:15:00,0,28174464,190799
OK,166,54,811,166,2014-10-01T21:20:00,0,28174890,190799
OK,166,54,811,166,2014-10-01T21:25:00,0,28175286,190799
OK,166,54,811,166,2014-10-01T21:30:00,0,28175735,190799
OK,166,54,811,166,2014-10-01T21:35:00,0,28176184,190799
OK,166,54,811,166,2014-10-01T21:45:00,0,28176633,190799
OK,166,54,811,166,2014-10-01T21:50:00,0,28177429,190799
OK,166,54,811,166,2014-10-01T21:55:00,0,28177875,190799
OK,166,54,811,166,2014-10-01T22:00:00,0,28178324,190799
OK,166,54,811,166,2014-10-01T22:05:00,0,28178771,190799
OK,166,54,811,166,2014-10-01T22:10:00,0,28179207,190799
OK,166,54,811,166,2014-10-01T22:15:00,0,28179648,190799
OK,166,54,811,166,2014-10-01T22:20:00,0,28180095,190799
OK,166,54,811,166,2014-10-01T22:25:00,0,28180494,190799
OK,166,54,811,166,2014-10-01T22:30:00,0,28180942,190799
OK,166,54,811,166,2014-10-01T22:35:00,0,28181366,190799
OK,166,54,811,166,2014-10-01T22:40:00,0,28181814,190799
OK,166,54,811,166,2014-10-01T22:45:00,0,28182261,190799
OK,166,54,811,166,2014-10-01T22:50:00,0,28182710,190799
OK,166,54,811,166,2014-10-01T22:55:00,0,28183127,190799
OK,166,54,811,166,2014-10-01T23:00:00,0,28183560,190799
OK,166,54,811,166,2014-10-01T23:05:00,0,28184005,190799
OK,166,54,811,166,2014-10-01T23:10:00,0,28184454,190799
OK,166,54,811,166,2014-10-01T23:15:00,0,28184889,190799
OK,166,54,811,166,2014-10-01T23:20:00,0,28185337,190799
OK,166,54,811,166,2014-10-01T23:25:00,0,28185768,190799
OK,166,54,811,166,2014-10-01T23:30:00,0,28186160,190799
OK,166,54,811,166,2014-10-01T23:40:00,0,28187007,190799
OK,166,54,811,166,2014-10-01T23:45:00,0,28187449,190799
OK,166,54,811,166,2014-10-01T23:50:00,0,28187898,190799
OK,166,54,811,166,2014-10-01T23:55:00,0,28188339,190799
OK,166,54,811,166,2014-10-02T00:00:00,0,28188775,190799
OK,166,54,811,166,2014-10-02T00:05:00,0,28189224,190799
OK,166,54,811,166,2014-10-02T00:10:00,0,28189649,190799
OK,166,54,811,166,2014-10-02T00:15:00,0,28190095,190799
OK,166,54,811,166,2014-10-02T00:20:00,0,28190451,190799
OK,166,54,811,166,2014-10-02T00:25:00,0,28190897,190799
OK,166,54,811,166,2014-10-02T00:30:00,0,28191346,190799
OK,166,54,811,166,2014-10-02T00:35:00,0,28191655,190799
OK,166,54,811,166,2014-10-02T00:40:00,0,28192101,190799
OK,166,54,811,166,2014-10-02T00:45:00,0,28192535,190799
OK,166,54,811,166,2014-10-02T00:50:00,0,28192978,190799
OK,166,54,811,166,2014-10-02T00:55:00,0,28193345,190799
OK,166,54,811,166,2014-10-02T01:05:00,0,28194243,190799
OK,166,54,811,166,2014-10-02T01:15:00,0,28194692,190799
OK,166,54,811,166,2014-10-02T01:20:00,0,28195377,190799
OK,166,54,811,166,2014-10-02T01:30:00,0,28195826,190799
OK,166,54,811,166,2014-10-02T01:35:00,0,28196559,190799
OK,166,54,811,166,2014-10-02T01:40:00,0,28196984,190799
OK,166,54,811,166,2014-10-02T01:45:00,0,28197431,190799
OK,166,54,811,166,2014-10-02T01:50:00,0,28197879,190799
OK,166,54,811,166,2014-10-02T01:55:00,0,28198327,190799
OK,166,54,811,166,2014-10-02T02:05:00,0,28198776,190799
OK,166,54,811,166,2014-10-02T02:10:00,0,28199590,190799
OK,166,54,811,166,2014-10-02T02:15:00,0,28200032,190799
OK,166,54,811,166,2014-10-02T02:20:00,0,28200475,190799
OK,166,54,811,166,2014-10-02T02:25:00,0,28200924,190799
OK,166,54,811,166,2014-10-02T02:30:00,0,28201355,190799
OK,166,54,811,166,2014-10-02T02:45:00,0,28202253,190799
OK,166,54,811,166,2014-10-02T02:50:00,0,28202695,190799
OK,166,54,811,166,2014-10-02T02:55:00,0,28203143,190799
OK,166,54,811,166,2014-10-02T03:00:00,0,28203578,190799
OK,166,54,811,166,2014-10-02T03:10:00,0,28204027,190799
OK,166,54,811,166,2014-10-02T03:25:00,0,28204476,190799
OK,166,54,811,166,2014-10-02T03:30:00,0,28204925,190799
OK,166,54,811,166,2014-10-02T03:35:00,0,28205355,190799
OK,166,54,811,166,2014-10-02T03:40:00,0,28205800,190799
OK,166,54,811,166,2014-10-02T03:45:00,0,28206183,190799
OK,166,54,811,166,2014-10-02T03:55:00,0,28207081,190799
OK,166,54,811,166,2014-10-02T04:00:00,0,28207503,190799
OK,166,54,811,166,2014-10-02T04:05:00,0,28207949,190799
OK,166,54,811,166,2014-10-02T04:10:00,0,28208379,190799
OK,166,54,811,166,2014-10-02T04:15:00,0,28208825,190799
OK,166,54,811,166,2014-10-02T04:20:00,0,28209264,190799
OK,166,54,811,166,2014-10-02T04:25:00,0,28209712,190799
OK,166,54,811,166,2014-10-02T04:30:00,0,28210138,190799
OK,166,54,811,166,2014-10-02T04:35:00,0,28210584,190799
OK,166,54,811,166,2014-10-02T04:40:00,0,28211013,190799
OK,166,54,811,166,2014-10-02T04:45:00,0,28211453,190799
OK,166,54,811,166,2014-10-02T04:50:00,0,28211831,190799
OK,142,63,811,142,2014-10-02T04:55:00,2,28212280,190799
OK,135,66,811,135,2014-10-02T05:00:00,1,28212713,190799
OK,135,66,811,135,2014-10-02T05:05:00,0,28213158,190799
OK,135,66,811,135,2014-10-02T05:10:00,0,28213599,190799
OK,128,70,811,128,2014-10-02T05:15:00,0,28214045,190799
OK,128,70,811,128,2014-10-02T05:20:00,0,28214466,190799
OK,137,65,811,137,2014-10-02T05:25:00,5,28214907,190799
OK,140,64,811,140,2014-10-02T05:30:00,0,28215328,190799
OK,135,66,811,135,2014-10-02T05:40:00,4,28215772,190799
OK,140,64,811,140,2014-10-02T05:45:00,2,28216551,190799
OK,146,61,811,146,2014-10-02T05:50:00,0,28216998,190799
OK,136,66,811,136,2014-10-02T05:55:00,11,28217447,190799
OK,141,63,811,141,2014-10-02T06:00:00,6,28217886,190799
OK,142,63,811,142,2014-10-02T06:05:00,5,28218335,190799
OK,282,31,811,282,2014-10-02T06:10:00,1,28218759,190799
OK,131,68,811,131,2014-10-02T06:15:00,3,28219204,190799
OK,136,66,811,136,2014-10-02T06:20:00,9,28219579,190799
OK,134,67,811,134,2014-10-02T06:25:00,4,28220026,190799
OK,124,72,811,124,2014-10-02T06:30:00,4,28220462,190799
OK,118,76,811,118,2014-10-02T06:40:00,0,28220909,190799
OK,128,70,811,128,2014-10-02T06:45:00,1,28221576,190799
OK,130,69,811,130,2014-10-02T07:00:00,1,28222170,190799
OK,154,58,811,154,2014-10-02T07:05:00,3,28222619,190799
OK,154,58,811,154,2014-10-02T07:10:00,2,28223052,190799
OK,154,58,811,154,2014-10-02T07:15:00,0,28223486,190799
OK,154,58,811,154,2014-10-02T07:20:00,0,28223933,190799
OK,131,68,811,131,2014-10-02T07:25:00,2,28224288,190799
OK,125,72,811,125,2014-10-02T07:30:00,0,28224737,190799
OK,139,64,811,139,2014-10-02T07:35:00,4,28225186,190799
OK,136,66,811,136,2014-10-02T07:40:00,0,28225516,190799
OK,124,72,811,124,2014-10-02T07:50:00,2,28226399,190799
OK,150,60,811,150,2014-10-02T07:55:00,4,28226847,190799
OK,151,59,811,151,2014-10-02T08:00:00,3,28227268,190799
OK,150,60,811,150,2014-10-02T08:05:00,3,28227711,190799
OK,135,66,811,135,2014-10-02T08:10:00,0,28228074,190799
OK,142,63,811,142,2014-10-02T08:15:00,1,28228519,190799
OK,142,63,811,142,2014-10-02T08:20:00,1,28228936,190799
OK,134,67,811,134,2014-10-02T08:25:00,2,28229378,190799
OK,134,67,811,134,2014-10-02T08:30:00,0,28229733,190799
OK,135,66,811,135,2014-10-02T08:35:00,3,28230177,190799
OK,135,66,811,135,2014-10-02T08:40:00,1,28230564,190799
OK,135,66,811,135,2014-10-02T08:45:00,0,28230992,190799
OK,144,62,811,144,2014-10-02T08:50:00,2,28231419,190799
OK,150,60,811,150,2014-10-02T08:55:00,0,28231864,190799
OK,129,69,811,129,2014-10-02T09:00:00,1,28232209,190799
OK,129,69,811,129,2014-10-02T09:10:00,0,28232655,190799
OK,125,72,811,125,2014-10-02T09:15:00,2,28233104,190799
OK,131,68,811,131,2014-10-02T09:20:00,1,28233532,190799
OK,131,68,811,131,2014-10-02T09:25:00,0,28233977,190799
OK,131,68,811,131,2014-10-02T09:30:00,0,28234312,190799
OK,127,70,811,127,2014-10-02T09:35:00,4,28234759,190799
OK,133,67,811,133,2014-10-02T09:40:00,0,28235186,190799
OK,203,44,811,203,2014-10-02T09:45:00,0,28235635,190799
OK,203,44,811,203,2014-10-02T09:50:00,0,28236079,190799
OK,112,80,811,112,2014-10-02T09:55:00,1,28236525,190799
OK,112,80,811,112,2014-10-02T10:00:00,0,28236930,190799
OK,112,80,811,112,2014-10-02T10:05:00,0,28237376,190799
OK,140,64,811,140,2014-10-02T10:10:00,1,28237824,190799
OK,140,64,811,140,2014-10-02T10:15:00,1,28238272,190799
OK,132,68,811,132,2014-10-02T10:20:00,1,28238713,190799
OK,132,68,811,132,2014-10-02T10:25:00,1,28239161,190799
OK,132,68,811,132,2014-10-02T10:30:00,0,28239592,190799
OK,132,68,811,132,2014-10-02T10:35:00,0,28240040,190799
OK,126,71,811,126,2014-10-02T10:40:00,1,28240485,190799
OK,126,71,811,126,2014-10-02T10:45:00,1,28240933,190799
OK,126,71,811,126,2014-10-02T10:50:00,0,28241367,190799
OK,149,60,811,149,2014-10-02T10:55:00,2,28241813,190799
OK,157,57,811,157,2014-10-02T11:00:00,1,28242211,190799
OK,157,57,811,157,2014-10-02T11:05:00,0,28242658,190799
OK,127,70,811,127,2014-10-02T11:15:00,4,28243107,190799
OK,125,72,811,125,2014-10-02T11:20:00,1,28243871,190799
OK,125,72,811,125,2014-10-02T11:25:00,1,28244300,190799
OK,125,72,811,125,2014-10-02T11:30:00,0,28244748,190799
OK,131,68,811,131,2014-10-02T11:35:00,2,28245197,190799
OK,122,73,811,122,2014-10-02T11:40:00,0,28245606,190799
OK,122,73,811,122,2014-10-02T11:45:00,0,28246052,190799
OK,155,58,811,155,2014-10-02T11:50:00,4,28246489,190799
OK,159,56,811,159,2014-10-02T11:55:00,5,28246938,190799
OK,144,62,811,144,2014-10-02T12:00:00,4,28247384,190799
OK,142,63,811,142,2014-10-02T12:05:00,1,28247816,190799
OK,142,63,811,142,2014-10-02T12:10:00,0,28248263,190799
OK,129,69,811,129,2014-10-02T12:15:00,3,28248711,190799
OK,129,69,811,129,2014-10-02T12:20:00,0,28249139,190799
OK,141,63,811,141,2014-10-02T12:25:00,4,28249582,190799
OK,141,63,811,141,2014-10-02T12:30:00,4,28250001,190799
OK,143,62,811,143,2014-10-02T12:35:00,0,28250399,190799
OK,126,71,811,126,2014-10-02T12:45:00,1,28251179,190799
OK,178,50,811,178,2014-10-02T13:20:00,1,28251724,190799
OK,178,50,811,178,2014-10-02T13:30:00,0,28252308,190799
OK,178,50,811,178,2014-10-02T13:35:00,0,28252750,190799
OK,178,50,811,178,2014-10-02T13:40:00,0,28253167,190799
OK,128,70,811,128,2014-10-02T13:45:00,2,28253616,190799
OK,141,63,811,141,2014-10-02T13:50:00,3,28254022,190799
OK,145,62,811,145,2014-10-02T13:55:00,0,28254342,190799
OK,145,62,811,145,2014-10-02T14:10:00,0,28254919,190799
OK,144,62,811,144,2014-10-02T14:15:00,1,28255368,190799
OK,144,62,811,144,2014-10-02T14:20:00,0,28255796,190799
OK,144,62,811,144,2014-10-02T14:25:00,0,28256245,190799
OK,134,67,811,134,2014-10-02T14:30:00,1,28256673,190799
OK,134,67,811,134,2014-10-02T14:35:00,0,28257122,190799
OK,134,67,811,134,2014-10-02T14:40:00,0,28257563,190799
OK,134,67,811,134,2014-10-02T14:45:00,0,28258011,190799
OK,134,67,811,134,2014-10-02T14:50:00,0,28258444,190799
OK,134,67,811,134,2014-10-02T14:55:00,0,28258890,190799
OK,132,68,811,132,2014-10-02T15:00:00,3,28259339,190799
OK,132,68,811,132,2014-10-02T15:05:00,3,28259786,190799
OK,135,66,811,135,2014-10-02T15:10:00,0,28260219,190799
OK,135,66,811,135,2014-10-02T15:15:00,0,28260668,190799
OK,135,66,811,135,2014-10-02T15:20:00,0,28261108,190799
OK,124,72,811,124,2014-10-02T15:25:00,1,28261490,190799
OK,124,72,811,124,2014-10-02T15:30:00,1,28261920,190799
OK,139,64,811,139,2014-10-02T15:35:00,2,28262367,190799
OK,131,68,811,131,2014-10-02T15:40:00,1,28262813,190799
OK,156,57,811,156,2014-10-02T15:45:00,1,28263251,190799
OK,156,57,811,156,2014-10-02T15:50:00,0,28263692,190799
OK,156,57,811,156,2014-10-02T15:55:00,0,28264094,190799
OK,156,57,811,156,2014-10-02T16:00:00,0,28264543,190799
OK,138,65,811,138,2014-10-02T16:05:00,2,28264981,190799
OK,135,66,811,135,2014-10-02T16:10:00,2,28265421,190799
OK,120,75,811,120,2014-10-02T16:15:00,0,28265817,190799
OK,117,76,811,117,2014-10-02T16:20:00,2,28266266,190799
OK,125,72,811,125,2014-10-02T16:25:00,0,28266715,190799
OK,144,62,811,144,2014-10-02T16:30:00,1,28267038,190799